Weather Roundup
Issued by NWS Springfield, MO

Home | Current Version | Previous Version | Text Only | Print | Product List | Glossary On
Versions: 1 2 3 4 5 6 7 8 9 10 11 12 13 14 15 16 17 18 19 20 21 22 23 24 25 26 27 28 29 30 31 32 33 34 35 36 37 38 39 40 41 42 43 44 45 46 47 48 49 50
000
NZUS99 KSGF 230107
HRRSGF

HOURLY WEATHER
NATIONAL WEATHER SERVICE SPRINGFIELD MO
800 PM CDT WED OCT 22 2014

......SGF CWA......

CITY           SKY/WX    TMP DP  RH WIND       PRES   REMARKS
SPRINGFIELD    CLEAR     56  47  71 SE6       30.17R
JOPLIN         CLEAR     63  55  75 SE6       30.13R
WEST PLAINS    CLEAR     48  42  80 CALM      30.20R
ROLLA          CLEAR     50  38  63 E6        30.18R
OSAGE BEACH    CLEAR     55  45  67 SE3       30.18R
BRANSON        PTCLDY    52  48  87 SE7       30.19R

......SURROUNDING SGF CWA......

CITY           SKY/WX    TMP DP  RH WIND       PRES   REMARKS
CHANUTE        CLOUDY    67  59  75 SE8       30.10R
PARSONS        MOCLDY    68  58  70 SE5       30.11R
COFFEYVILLE    PTCLDY    67  57  70 SE7       30.10R
EMPORIA        MOCLDY    66  57  72 S8        30.07R
GROVE OK       CLEAR     63  59  88 CALM      30.14R
ROGERS AR      PTCLDY    62  54  74 SE7       30.17R
SILOAM SPRINGS CLEAR     63  48  59 S7        30.16S
HARRISON AR    CLEAR     56  49  77 SE5       30.19R
NEAR YELLVILLE CLEAR     55  45  67 CALM      30.19R

......KANSAS AND MISSOURI......

CITY           SKY/WX    TMP DP  RH WIND       PRES   REMARKS
KANSAS CTY INT PTCLDY    63  53  70 SE10      30.10S
DOWNTOWN KC    CLEAR     67  52  58 SE9       30.10R
COLUMBIA       CLEAR     54  42  64 E6        30.19R
SEDALIA        CLEAR     58  47  66 SE9       30.17S
ST JOSEPH      CLEAR     65  53  65 SE10      30.09R
ST LOUIS       NOT AVBL
SPIRIT OF STL  CLEAR     47  42  83 CALM      30.21R
KIRKSVILLE     CLEAR     51  43  74 SE6       30.19R
WICHITA        LGT RAIN  69  57  65 S9        30.06R
TOPEKA         MOCLDY    68  59  73 SE8       30.07R
OLATHE         CLEAR     64  56  75 SE7       30.11R

......TENNESSEE......

CITY           SKY/WX    TMP DP  RH WIND       PRES   REMARKS
MEMPHIS        CLEAR     60  43  53 NE5       30.18R
NASHVILLE      CLEAR     52  42  69 N7        30.21R

......ARKANSAS.......

CITY           SKY/WX    TMP DP  RH WIND       PRES   REMARKS
FAYETTEVILLE   CLEAR     58  53  84 CALM      30.17R
FT SMITH       CLEAR     63  54  72 E5        30.15R
LITTLE ROCK    CLEAR     58  45  62 E7        30.16S

......OKLAHOMA.......

CITY           SKY/WX    TMP DP  RH WIND       PRES   REMARKS
TULSA          MOCLDY    69  56  62 SE7       30.09R
PONCA CITY     CLOUDY    72  58  61 S10       30.06S
MCALESTER      PTCLDY    64  59  83 CALM      30.13R
OKLAHOMA CITY  RAIN      64  61  90 W8        30.12R FOG

......IOWA............

CITY           SKY/WX    TMP DP  RH WIND       PRES   REMARKS
DES MOINES     MOCLDY    60  46  59 SE13      30.12S
QUAD CITIES    CLEAR     43  37  79 S3        30.23R

......ILLINOIS........

CITY           SKY/WX    TMP DP  RH WIND       PRES   REMARKS
QUINCY         CLEAR     52  40  63 SE5       30.21R
CHICAGO        CLEAR     45  37  73 E9        30.26F




USA.gov is the U.S. government's official web portal to all federal, state and local government web resources and services.